Weather History for KIGX - October, 2012

Change the Weather History Date:

Sunday, October 21, 2012

  Actual Average Record
Temperature  
Mean Temperature 56 °F -  
Max Temperature 66 °F 67 °F 85 °F (1985)
Min Temperature 46 °F 41 °F 26 °F (1952)
Degree Days  
Heating Degree Days 9    
Growing Degree Days 6 (Base 50)    
Moisture  
Dew Point 41 °F    
Average Humidity 64    
Maximum Humidity 93    
Minimum Humidity 37    
Precipitation  
Precipitation 0.00 in - - ()
Sea Level Pressure  
Sea Level Pressure 30.09 in    
Wind  
Wind Speed 3 mph (NW)    
Max Wind Speed 7 mph    
Max Gust Speed -    
Visibility 10 miles    
Events      
Averages and records for this station are not official NWS values.
T = Trace of Precipitation, MM = Missing Value Source: NWS Daily Summary

Daily Weather History Graph

Daily Weather History Graph

Search for Another Location

Airport or City:

Trip Planner

Search our weather history database for the weather conditions in past years. The results will help you decide how hot, cold, wet, or windy it might be!

Date:

Astronomy

Oct. 21, 2012 Rise Set
Actual Time 7:28 AM EDT 6:32 PM EDT
Civil Twilight 7:02 AM EDT 6:58 PM EDT
Nautical Twilight 6:32 AM EDT 7:28 PM EDT
Astronomical Twilight 6:03 AM EDT 7:57 PM EDT
Moon 1:44 PM EDT (10/21) No Moon Set
Length of Visible Light 11h 55m
Length of Day
11h 03m
Waxing Crescent, 45% of the Moon is Illuminated
Oct 21
Waxing Crescent
Oct 21
First Quarter
Oct 29
Full
Nov 6
Last Quarter
Nov 13
New

Hourly Weather History & Observations

Time (EDT) Temp. Windchill Dew Point Humidity Pressure Visibility Wind Dir Wind Speed Gust Speed Precip Events Conditions
12:56 AM 50.0 °F - 42.1 °F 74% 29.98 in 10.0 mi Calm Calm - N/A   Clear
1:56 AM 48.0 °F - 41.0 °F 77% 30.00 in 10.0 mi WNW 3.5 mph - N/A   Clear
2:56 AM 46.9 °F - 39.0 °F 74% 30.01 in 10.0 mi WNW 4.6 mph - N/A   Clear
3:56 AM 46.9 °F - 37.9 °F 71% 30.01 in 10.0 mi WNW 4.6 mph - N/A   Clear
4:56 AM 46.9 °F - 37.9 °F 71% 30.02 in 10.0 mi NW 4.6 mph - N/A   Clear
5:56 AM 46.9 °F - 37.9 °F 71% 30.06 in 10.0 mi WNW 5.8 mph - N/A   Scattered Clouds
6:56 AM 46.0 °F 43.9 °F 37.9 °F 73% 30.09 in 10.0 mi WNW 4.6 mph - N/A   Clear
7:56 AM 48.0 °F - 37.9 °F 68% 30.10 in 10.0 mi NNW 4.6 mph - N/A   Clear
8:56 AM 54.0 °F - 39.9 °F 59% 30.13 in 10.0 mi NNW 5.8 mph - N/A   Clear
9:15 AM 55.4 °F - 39.2 °F 54% 30.14 in 10.0 mi Variable 4.6 mph - N/A   Partly Cloudy
9:56 AM 57.9 °F - 39.9 °F 51% 30.14 in - Variable 3.5 mph - N/A   Unknown
10:56 AM 61.0 °F - 39.9 °F 46% 30.15 in 10.0 mi NW 6.9 mph - N/A   Unknown
12:56 PM 64.0 °F - 39.9 °F 41% 30.14 in 10.0 mi Variable 4.6 mph - N/A   Clear
1:56 PM 66.0 °F - 39.0 °F 37% 30.11 in 10.0 mi Calm Calm - N/A   Clear
2:56 PM 66.0 °F - 39.0 °F 37% 30.09 in 10.0 mi Calm Calm - N/A   Clear
3:56 PM 64.9 °F - 39.9 °F 40% 30.10 in 10.0 mi Calm Calm - N/A   Clear
4:56 PM 64.9 °F - 41.0 °F 42% 30.10 in 10.0 mi West 3.5 mph - N/A   Clear
6:56 PM 53.1 °F - 46.0 °F 77% 30.12 in 10.0 mi Calm Calm - N/A   Clear
7:56 PM 50.0 °F - 45.0 °F 83% 30.14 in 10.0 mi Calm Calm - N/A   Clear
8:56 PM 48.9 °F - 45.0 °F 86% 30.14 in 10.0 mi Calm Calm - N/A   Clear
9:56 PM 46.9 °F - 45.0 °F 93% 30.15 in 10.0 mi Calm Calm - N/A   Clear
10:56 PM 46.9 °F - 43.0 °F 86% 30.15 in 10.0 mi Calm Calm - N/A   Clear